DW1806 Weather Reports


Display with metric or nautical units.
time (UTC)temp
F
wind
direction
speed
MPH
gust
MPH
rain 1hr
in
rain 24hr
in
rain mn
in
humidity
%
barometer
mb
20260506152546 48 74 0.0 0.0 0.00 0.00 0.42 93 1007.9
20260506152045 48 74 0.0 0.0 0.00 0.00 0.42 93 1007.8
20260506151545 48 51 0.0 0.0 0.00 0.00 0.42 93 1007.7
20260506151046 48 51 0.0 0.0 0.00 0.00 0.42 93 1007.6
20260506150544 48 51 0.0 0.0 0.00 0.00 0.42 93 1007.6
20260506150044 48 61 0.0 0.0 0.00 0.00 0.42 94 1007.7
20260506145546 47 61 0.0 0.0 0.00 0.00 0.42 93 1007.7
20260506145043 48 61 0.0 0.0 0.00 0.00 0.42 93 1007.7
20260506144545 48 113 0.0 0.0 0.00 0.00 0.42 94 1007.5
20260506144044 47 118 0.0 0.0 0.00 0.00 0.42 94 1007.5
20260506143543 47 119 0.0 0.0 0.00 0.00 0.42 94 1007.4
20260506143043 47 119 0.0 0.0 0.00 0.00 0.42 93 1007.3
20260506142545 47 119 0.0 0.0 0.00 0.00 0.42 94 1007.6
20260506142042 47 119 0.0 0.0 0.00 0.00 0.42 93 1007.6
20260506141542 47 119 0.0 0.0 0.00 0.00 0.42 94 1007.6
20260506141043 46 119 0.0 0.0 0.00 0.00 0.42 94 1007.5
20260506140544 46 119 0.0 0.0 0.00 0.00 0.42 93 1007.4
20260506140042 46 119 0.0 0.0 0.00 0.00 0.42 93 1007.4
20260506135541 46 119 0.0 0.0 0.00 0.00 0.41 94 1007.4
20260506135041 46 119 0.0 0.0 0.00 0.00 0.41 94 1007.3
20260506134542 46 119 0.0 0.0 0.00 0.00 0.41 93 1007.3
20260506134043 46 119 0.0 0.0 0.00 0.00 0.41 93 1007.2
20260506133541 46 119 0.0 0.0 0.00 0.00 0.41 93 1007.0
20260506133046 46 119 0.0 0.0 0.00 0.00 0.41 93 1006.9
20260506132541 46 119 0.0 0.0 0.00 0.00 0.41 93 1007.0
20260506132040 45 119 0.0 0.0 0.00 0.00 0.41 93 1007.0
20260506131541 45 119 0.0 0.0 0.00 0.00 0.41 93 1006.9
20260506131040 45 119 0.0 0.0 0.00 0.00 0.41 93 1007.0
20260506130540 45 119 0.0 0.0 0.00 0.00 0.41 93 1006.9
20260506130041 45 119 0.0 0.0 0.00 0.00 0.41 94 1007.0
20260506125540 45 119 0.0 0.0 0.00 0.00 0.41 93 1006.8
20260506125039 45 119 0.0 0.0 0.00 0.00 0.41 93 1006.9
20260506124543 45 119 0.0 0.0 0.00 0.00 0.41 94 1006.8
20260506124039 45 119 0.0 0.0 0.00 0.00 0.41 94 1006.9
20260506123539 45 119 0.0 0.0 0.00 0.00 0.40 94 1007.0
20260506123039 45 119 0.0 0.0 0.00 0.00 0.40 94 1006.9
20260506122538 45 94 0.0 0.0 0.00 0.00 0.40 93 1006.7
20260506122038 45 84 0.0 0.0 0.00 0.00 0.40 94 1006.6
20260506121547 45 84 0.0 0.0 0.00 0.00 0.40 94 1006.5
20260506121039 45 84 0.0 0.0 0.00 0.00 0.40 94 1006.6
20260506120538 45 111 0.0 0.0 0.00 0.00 0.40 93 1006.5
20260506120041 45 84 0.0 0.0 0.00 0.00 0.39 93 1006.5
20260506115540 45 86 0.0 0.0 0.00 0.00 0.39 93 1006.4
20260506115038 44 88 0.0 0.0 0.00 0.00 0.39 93 1006.3
20260506114537 45 76 0.0 0.0 0.00 0.00 0.39 93 1006.3
20260506114036 45 92 0.0 0.0 0.00 0.00 0.39 94 1006.3
20260506113536 45 103 0.0 0.0 0.00 0.00 0.39 94 1006.4
20260506113036 45 90 0.0 0.0 0.00 0.00 0.39 94 1006.2
20260506112535 46 90 0.0 0.0 0.00 0.00 0.38 94 1006.3
20260506112038 46 89 0.0 0.0 0.00 0.00 0.38 94 1006.1
20260506111536 46 92 0.0 0.0 0.00 0.00 0.38 94 1006.2
20260506111035 46 91 0.0 0.0 0.00 0.00 0.38 94 1006.5
20260506110539 46 86 0.0 0.0 0.00 0.00 0.37 94 1006.5
20260506110037 46 64 0.0 0.0 0.00 0.00 0.37 94 1006.6
20260506105535 46 64 0.0 0.0 0.00 0.00 0.37 94 1006.6
20260506105034 46 64 0.0 0.0 0.00 0.00 0.37 94 1006.6
20260506104535 46 64 0.0 0.0 0.00 0.00 0.36 94 1006.4
20260506104034 46 64 0.0 0.0 0.00 0.00 0.36 94 1006.4
20260506103534 46 64 0.0 0.0 0.00 0.00 0.36 94 1006.2
20260506103034 46 64 0.0 0.0 0.00 0.00 0.36 94 1006.3
20260506102534 46 64 0.0 0.0 0.00 0.00 0.36 94 1006.1
20260506102036 45 64 0.0 0.0 0.00 0.00 0.36 94 1005.8
20260506101533 45 63 0.0 0.0 0.00 0.00 0.36 94 1005.8
20260506101032 45 63 0.0 0.0 0.00 0.00 0.35 94 1006.0
20260506100532 45 59 0.0 0.0 0.00 0.00 0.35 94 1006.1
20260506100036 45 58 0.0 0.0 0.00 0.00 0.35 94 1006.4
20260506095532 45 58 0.0 0.0 0.00 0.00 0.34 94 1006.5
20260506095033 45 57 0.0 0.0 0.00 0.00 0.34 94 1006.7
20260506094532 45 32 0.0 0.0 0.00 0.00 0.34 94 1006.7
20260506094032 46 64 0.0 0.0 0.00 0.00 0.33 94 1006.7
20260506093530 46 55 0.0 0.0 0.00 0.00 0.33 94 1006.6
20260506093031 46 59 0.0 0.0 0.00 0.00 0.32 94 1006.6
20260506092532 46 42 0.0 0.0 0.00 0.00 0.32 94 1006.5
20260506092030 46 26 0.0 0.0 0.00 0.00 0.32 94 1006.6
20260506091529 46 45 0.0 0.0 0.00 0.00 0.31 94 1006.5
20260506091029 46 36 0.0 0.0 0.00 0.00 0.31 94 1006.4
20260506090527 46 26 0.0 0.0 0.00 0.00 0.30 94 1006.4
20260506090027 47 43 0.0 0.0 0.00 0.00 0.30 94 1006.5
20260506085527 47 12 0.0 0.0 0.00 0.00 0.28 94 1006.6
20260506085026 47 52 0.0 0.0 0.00 0.00 0.28 94 1006.3
20260506084535 47 79 0.0 0.0 0.00 0.00 0.28 94 1006.5
20260506084026 47 75 0.0 0.0 0.00 0.00 0.28 94 1006.4
20260506083529 47 46 0.0 0.0 0.00 0.00 0.28 94 1006.0
20260506083031 47 42 0.0 0.0 0.00 0.00 0.27 94 1006.1
20260506082528 47 52 0.0 0.0 0.00 0.00 0.26 94 1006.0
20260506082024 47 46 0.0 0.0 0.00 0.00 0.26 94 1006.1
20260506081524 47 34 0.0 0.0 0.00 0.00 0.26 94 1006.2
20260506081024 47 35 0.0 0.0 0.00 0.00 0.25 94 1006.0
20260506080523 47 53 0.0 0.0 0.00 0.00 0.25 94 1006.0
20260506073524 48 41 0.0 0.0 0.00 0.00 0.22 94 1006.3
20260506073020 48 41 0.0 0.0 0.00 0.00 0.22 94 1006.2
20260506072520 48 41 0.0 0.0 0.00 0.00 0.21 94 1006.2
20260506072018 48 44 0.0 0.0 0.00 0.00 0.21 94 1006.3
20260506071520 48 44 0.0 0.0 0.00 0.00 0.20 94 1006.2
20260506071018 48 44 0.0 0.0 0.00 0.00 0.20 94 1006.3
20260506070517 48 44 0.0 0.0 0.00 0.00 0.20 94 1006.3
20260506062516 48 47 0.0 0.0 0.00 0.00 0.16 93 1006.6
20260506062015 48 59 0.0 0.0 0.00 0.00 0.16 93 1006.4
20260506061515 48 61 0.0 0.0 0.00 0.00 0.16 93 1006.4
20260506061015 49 61 0.0 0.0 0.00 0.00 0.15 93 1006.3
20260506060513 49 61 0.0 0.0 0.00 0.00 0.15 93 1006.6
20260506051009 49 247 0.0 0.0 0.00 0.00 0.10 93 1007.5
20260506050510 49 247 0.0 0.0 0.00 0.00 0.10 93 1007.3
20260506045007 49 247 0.0 0.0 0.00 0.00 0.06 93 1007.3
20260506044513 49 247 0.0 0.0 0.00 0.00 0.05 93 1007.1
20260506044006 49 247 0.0 0.0 0.00 0.00 0.04 93 1007.1
20260506043505 49 247 0.0 0.0 0.00 0.00 0.03 93 1007.2
20260506043005 49 247 0.0 0.0 0.00 0.00 0.02 93 1006.9
20260506042506 49 247 0.0 0.0 0.00 0.00 0.02 93 1006.9
20260506042005 49 247 0.0 0.0 0.00 0.00 0.01 93 1006.9
20260506041504 49 247 0.0 0.0 0.00 0.00 0.00 93 1006.9
20260506041003 49 247 0.0 0.0 0.00 0.00 0.00 92 1006.8
20260506040503 49 247 0.0 0.0 0.00 0.00 0.00 92 1007.0
20260506040002 49 247 0.0 0.0 0.00 0.00 0.00 92 1006.9
20260506035504 49 247 0.0 0.0 0.00 0.00 0.68 92 1006.7
20260506035002 49 247 0.0 0.0 0.00 0.00 0.68 92 1006.6
20260506034503 49 247 0.0 0.0 0.00 0.00 0.68 92 1006.8
20260506034000 49 247 0.0 0.0 0.00 0.00 0.68 92 1006.9
20260506033501 49 247 0.0 0.0 0.00 0.00 0.68 92 1006.7
20260506033000 49 247 0.0 0.0 0.00 0.00 0.67 92 1006.7
20260506032502 49 247 0.0 0.0 0.00 0.00 0.67 92 1007.1
20260506032002 49 247 0.0 0.0 0.00 0.00 0.67 92 1007.1
20260506031603 49 247 0.0 0.0 0.00 0.00 0.66 92 1006.9
20260506031101 49 247 0.0 0.0 0.00 0.00 0.66 92 1007.3
20260506030559 49 247 0.0 0.0 0.00 0.00 0.66 92 1007.1
20260506030100 49 247 0.0 0.0 0.00 0.00 0.65 92 1007.1
20260506025559 49 247 0.0 0.0 0.00 0.00 0.64 92 1007.1
20260506025059 49 247 0.0 0.0 0.00 0.00 0.64 92 1007.1
20260506024609 49 247 0.0 0.0 0.00 0.00 0.63 92 1007.2
20260506024059 49 247 0.0 0.0 0.00 0.00 0.62 92 1007.5
20260506023600 49 247 0.0 0.0 0.00 0.00 0.62 92 1007.4
20260506023112 49 247 0.0 0.0 0.00 0.00 0.61 92 1007.4
20260506022559 49 247 0.0 0.0 0.00 0.00 0.60 92 1007.4
20260506022103 49 247 0.0 0.0 0.00 0.00 0.60 92 1007.4
20260506021602 49 247 0.0 0.0 0.00 0.00 0.60 92 1007.5
20260506021059 49 247 0.0 0.0 0.00 0.00 0.60 92 1007.4
20260506020600 49 247 0.0 0.0 0.00 0.00 0.60 92 1007.2
20260506020058 49 247 0.0 0.0 0.00 0.00 0.59 92 1007.2
20260506015558 49 247 0.0 0.0 0.00 0.00 0.59 91 1007.2
20260506015058 49 247 0.0 0.0 0.00 0.00 0.59 92 1007.3
20260506014558 49 247 0.0 0.0 0.00 0.00 0.59 91 1007.5
20260506014101 49 247 0.0 0.0 0.00 0.00 0.59 91 1007.6
20260506013557 49 247 0.0 0.0 0.00 0.00 0.57 91 1007.6
20260506013104 49 247 0.0 0.0 0.00 0.00 0.57 91 1007.6
20260506012558 49 247 0.0 0.0 0.00 0.00 0.57 91 1007.7
20260506012056 49 247 0.0 0.0 0.00 0.00 0.57 91 1007.4
20260506011604 49 279 0.0 0.0 0.00 0.00 0.57 91 1007.3
20260506011055 49 279 0.0 0.0 0.00 0.00 0.57 91 1007.3
20260506010555 49 279 0.0 0.0 0.00 0.00 0.57 91 1007.2
20260506010055 49 279 0.0 0.0 0.00 0.00 0.57 91 1007.2
20260506005554 49 279 0.0 0.0 0.00 0.00 0.56 91 1007.4
20260506005055 49 279 0.0 0.0 0.00 0.00 0.56 91 1007.3
20260506004558 49 279 0.0 0.0 0.00 0.00 0.56 90 1007.4
20260506004054 50 279 0.0 0.0 0.00 0.00 0.56 90 1007.5
20260506003554 50 279 0.0 0.0 0.00 0.00 0.54 90 1007.5
20260506003054 49 279 0.0 0.0 0.00 0.00 0.53 90 1007.5
20260506002552 49 279 0.0 0.0 0.00 0.00 0.52 90 1007.2
20260506002052 49 279 0.0 0.0 0.00 0.00 0.51 90 1007.2
20260506001556 49 279 0.0 0.0 0.00 0.00 0.50 90 1007.0
20260506001051 49 279 0.0 0.0 0.00 0.00 0.48 90 1007.0
20260506000551 49 279 0.0 0.0 0.00 0.00 0.48 90 1007.0
20260506000057 50 279 0.0 0.0 0.00 0.00 0.46 90 1006.9
20260505235549 49 279 0.0 0.0 0.00 0.00 0.44 90 1007.0
20260505235050 49 279 0.0 0.0 0.00 0.00 0.43 90 1006.9
20260505234549 49 298 0.0 0.0 0.00 0.00 0.42 89 1006.6
20260505234049 49 298 0.0 0.0 0.00 0.00 0.40 89 1006.7
20260505233551 49 298 0.0 0.0 0.00 0.00 0.40 89 1006.4
20260505233053 50 298 0.0 0.0 0.00 0.00 0.39 89 1006.7
20260505232548 50 304 0.0 0.0 0.00 0.00 0.38 89 1006.4
20260505232050 50 304 0.0 0.0 0.00 0.00 0.38 90 1006.2
20260505231549 50 304 0.0 0.0 0.00 0.00 0.37 89 1006.2
20260505231047 50 304 0.0 0.0 0.00 0.00 0.36 89 1006.2
20260505230551 50 304 0.0 0.0 0.00 0.00 0.36 89 1006.4
20260505230111 50 304 0.0 0.0 0.00 0.00 0.34 89 1006.4
20260505225547 50 304 0.0 0.0 0.00 0.00 0.34 89 1006.6
20260505225049 50 304 0.0 0.0 0.00 0.00 0.33 89 1006.5
20260505224547 50 304 0.0 0.0 0.00 0.00 0.32 89 1006.6
20260505224047 50 304 0.0 0.0 0.00 0.00 0.32 89 1006.7
20260505223546 50 304 0.0 0.0 0.00 0.00 0.31 88 1006.7
20260505223047 50 306 0.0 0.0 0.00 0.00 0.30 88 1006.7
20260505222547 50 300 0.0 0.0 0.00 0.00 0.30 88 1006.6
20260505222047 50 284 0.0 0.0 0.00 0.00 0.28 89 1006.7
20260505221554 50 307 0.0 0.0 0.00 0.00 0.28 88 1006.6
20260505221044 50 308 0.0 0.0 0.00 0.00 0.27 88 1006.9
20260505220543 50 317 0.0 0.0 0.00 0.00 0.26 88 1006.4
20260505220053 50 323 0.0 0.0 0.00 0.00 0.25 88 1006.4
20260505215542 50 350 0.0 0.0 0.00 0.00 0.24 88 1006.4
20260505215042 51 325 0.0 0.0 0.00 0.00 0.24 87 1006.5
20260505214541 51 304 0.0 0.0 0.00 0.00 0.22 88 1006.5
20260505214041 51 296 0.0 0.0 0.00 0.00 0.22 88 1006.6
20260505213539 51 292 0.0 0.0 0.00 0.00 0.20 88 1006.5
20260505213038 51 287 0.0 0.0 0.00 0.00 0.19 87 1006.1
20260505212537 52 302 0.0 0.0 0.00 0.00 0.18 87 1005.9
20260505212036 53 292 0.0 0.0 0.00 0.00 0.16 87 1006.0
20260505211535 53 261 0.0 0.0 0.00 0.00 0.14 88 1006.0
20260505211034 53 316 0.0 0.0 0.00 0.00 0.10 87 1005.8
20260505210531 53 222 0.0 0.0 0.00 0.00 0.10 87 1005.2
20260505210034 54 232 0.0 0.0 0.00 0.00 0.08 87 1005.1
20260505205530 54 235 0.0 0.0 0.00 0.00 0.07 86 1004.9
20260505205029 54 224 0.0 0.0 0.00 0.00 0.07 85 1004.8
20260505204528 54 234 0.0 0.0 0.00 0.00 0.06 83 1004.8
20260505204027 55 232 0.0 0.0 0.00 0.00 0.06 82 1004.6
20260505203526 56 203 0.0 0.0 0.00 0.00 0.06 82 1004.4
20260505203026 56 186 0.0 0.0 0.00 0.00 0.06 81 1004.3
20260505202526 56 225 0.0 0.0 0.00 0.00 0.06 80 1004.3
20260505202026 56 203 0.0 0.0 0.00 0.00 0.06 80 1004.3
20260505201526 56 200 0.0 0.0 0.00 0.00 0.06 80 1004.4
20260505201027 56 194 0.0 0.0 0.00 0.00 0.06 80 1004.5
20260505200525 56 181 0.0 0.0 0.00 0.00 0.06 80 1004.4
20260505200035 56 220 0.0 0.0 0.00 0.00 0.06 78 1004.5
20260505195524 57 200 0.0 0.0 0.00 0.00 0.06 78 1004.4
20260505195023 58 220 0.0 0.0 0.00 0.00 0.06 77 1004.0
20260505194522 58 227 0.0 0.0 0.00 0.00 0.06 75 1003.8
20260505194022 59 194 0.0 0.0 0.00 0.00 0.06 74 1003.7
20260505193521 60 190 0.0 0.0 0.00 0.00 0.06 71 1003.8
20260505193021 62 224 0.0 0.0 0.00 0.00 0.06 70 1003.7
20260505192522 63 162 0.0 0.0 0.00 0.00 0.06 68 1003.5
20260505192021 65 212 0.0 0.0 0.00 0.00 0.06 66 1003.3
20260505191527 65 244 0.0 0.0 0.00 0.00 0.06 66 1003.4
20260505191021 65 265 0.0 0.0 0.00 0.00 0.06 65 1003.5
20260505190521 66 226 0.0 0.0 0.00 0.00 0.06 64 1003.5
20260505190019 66 224 0.0 0.0 0.00 0.00 0.06 64 1003.5
20260505185520 67 267 0.0 0.0 0.00 0.00 0.06 63 1003.3
20260505185020 67 200 0.0 0.0 0.00 0.00 0.06 63 1003.3
20260505184518 67 242 0.0 0.0 0.00 0.00 0.06 62 1003.3
20260505184019 67 264 0.0 0.0 0.00 0.00 0.06 62 1003.1
20260505183518 68 236 0.0 0.0 0.00 0.00 0.06 62 1003.0
20260505183020 68 231 0.0 0.0 0.00 0.00 0.06 62 1003.0
20260505182516 67 205 0.0 0.0 0.00 0.00 0.06 62 1003.0
20260505182016 67 205 0.0 0.0 0.00 0.00 0.06 62 1002.8
20260505181521 67 205 0.0 0.0 0.00 0.00 0.06 64 1002.8
20260505181016 66 265 0.0 0.0 0.00 0.00 0.06 64 1002.9
20260505180515 66 263 0.0 0.0 0.00 0.00 0.06 64 1002.9
20260505180015 65 232 0.0 0.0 0.00 0.00 0.06 65 1002.8
20260505175515 65 258 0.0 0.0 0.00 0.00 0.06 65 1002.7
20260505175015 66 267 0.0 0.0 0.00 0.00 0.06 65 1003.0
20260505174515 66 264 0.0 0.0 0.00 0.00 0.06 65 1002.6
20260505174015 66 242 0.0 0.0 0.00 0.00 0.06 64 1002.7
20260505173517 66 306 0.0 0.0 0.00 0.00 0.06 65 1002.6
20260505173015 66 273 0.0 0.0 0.00 0.00 0.06 66 1002.7
20260505172514 66 242 0.0 0.0 0.00 0.00 0.06 66 1002.8
20260505172019 66 241 0.0 0.0 0.00 0.00 0.06 67 1002.7
20260505171514 65 257 0.0 0.0 0.00 0.00 0.06 66 1002.9
20260505171016 66 250 0.0 0.0 0.00 0.00 0.06 66 1002.9
20260505170512 66 247 0.0 0.0 0.00 0.00 0.06 66 1002.9
20260505170013 66 265 0.0 0.0 0.00 0.00 0.06 64 1002.7
20260505165514 67 208 0.0 0.0 0.00 0.00 0.06 63 1002.6
20260505163012 66 197 0.0 0.0 0.00 0.00 0.05 65 1002.4
20260505162516 66 193 0.0 0.0 0.00 0.00 0.05 64 1002.2
20260505162014 65 205 0.0 0.0 0.00 0.00 0.05 65 1002.1
20260505161533 65 205 0.0 0.0 0.00 0.00 0.05 66 1001.9
20260505161012 64 203 0.0 0.0 0.00 0.00 0.05 66 1002.1
20260505160516 63 207 0.0 0.0 0.00 0.00 0.05 67 1002.2
20260505153013 65 179 0.0 0.0 0.00 0.00 0.05 63 1002.4